Date,TemperatureHighF,TemperatureAvgF,TemperatureLowF,DewpointHighF,DewpointAvgF,DewpointLowF,HumidityHigh,HumidityAvg,HumidityLow,PressureMaxIn,PressureMinIn,WindSpeedMaxMPH,WindSpeedAvgMPH,GustSpeedMaxMPH,PrecipitationSumIn
2013-1-1,35,26,9,29,17,6,87,70,54,30.05,29.81,5,0,0,0.00
2013-1-2,28,15,2,20,9,-3,92,79,56,30.33,30.01,3,0,0,0.00
2013-1-3,15,6,-7,10,0,-11,85,77,63,30.34,30.06,0,0,0,0.00
2013-1-4,37,28,15,26,21,11,90,75,62,30.05,29.91,5,0,0,0.01
2013-1-5,39,32,23,28,23,18,86,70,44,30.30,29.97,6,0,0,0.00
2013-1-6,40,31,24,33,27,20,92,85,70,30.25,29.97,1,0,0,0.00
2013-1-7,36,26,15,33,22,13,92,84,69,30.45,30.04,3,0,0,0.00
2013-1-8,40,22,8,29,18,6,93,84,62,30.44,30.34,0,0,0,0.00
2013-1-9,43,29,15,33,24,13,93,83,60,30.44,30.04,9,0,0,0.00
2013-1-10,44,36,26,34,26,23,88,69,50,30.63,30.22,5,0,0,0.04
2013-1-11,38,31,24,37,28,22,97,91,79,30.60,30.17,0,0,0,0.11
2013-1-12,43,39,35,42,38,34,98,97,96,30.21,30.15,2,0,0,0.01
2013-1-13,46,41,36,45,40,35,98,98,96,30.19,29.98,2,0,0,0.01
2013-1-14,47,42,34,45,36,25,98,81,56,30.37,29.92,7,0,0,0.05
2013-1-15,37,33,29,28,25,23,85,72,57,30.41,30.29,2,0,0,0.00
2013-1-16,32,31,29,31,28,24,100,91,77,30.29,29.89,0,0,0,0.00
2013-1-17,37,30,20,32,23,10,97,77,55,30.23,29.90,3,0,0,0.00
2013-1-18,23,17,8,12,7,0,78,64,43,30.47,30.18,3,0,0,0.00
2013-1-19,41,34,22,28,22,12,69,62,55,30.32,29.82,9,0,0,0.08
2013-1-20,43,35,22,35,24,12,83,63,40,30.08,29.55,11,1,0,0.00
2013-1-21,26,22,19,23,14,8,98,72,55,30.13,29.86,3,0,0,0.00
2013-1-22,20,15,9,17,7,1,91,72,48,30.19,29.85,10,0,0,0.00
2013-1-23,12,5,-1,5,-5,-8,83,63,50,30.29,30.18,3,0,0,0.00
2013-1-24,16,5,-7,0,-5,-11,83,65,42,30.46,30.25,5,0,0,0.00
2013-1-25,17,11,2,10,0,-6,86,63,47,30.49,30.16,2,0,0,0.00
2013-1-26,24,14,6,10,6,1,90,72,46,30.41,30.15,3,0,0,0.00
2013-1-27,26,16,5,7,5,2,88,65,42,30.59,30.41,4,0,0,0.00
2013-1-28,25,20,13,24,15,6,94,81,65,30.55,30.03,3,0,0,0.00
2013-1-29,38,31,25,37,29,24,97,93,88,30.22,30.05,0,0,0,0.20
2013-1-30,55,48,38,55,47,37,98,96,93,30.06,29.34,10,1,0,0.20
2013-1-31,54,39,26,54,31,16,98,74,52,29.67,28.95,12,1,0,0.43